Regional Weather Roundup
Issued by NWS Columbia, SC

Home | Current Version | Previous Version | Text Only | Print | Product List | Glossary On
Versions: 1 2 3 4 5 6 7 8 9 10 11 12 13 14 15 16 17 18 19 20 21 22 23 24 25 26 27 28 29 30 31 32 33 34 35 36 37 38 39 40 41 42 43 44 45 46 47 48 49 50
000
ASUS42 KCAE 250110
RWRCAE
REGIONAL WEATHER ROUNDUP
NATIONAL WEATHER SERVICE COLUMBIA SC
900 PM EDT FRI APR 24 2015

NOTE: "FAIR" INDICATES FEW OR NO CLOUDS BELOW 12,000 FEET WITH NO
SIGNIFICANT WEATHER AND/OR OBSTRUCTIONS TO VISIBILITY.

NOT ALL STATIONS ARE QUALITY CONTROLLED BY THE NATIONAL
WEATHER SERVICE. USE DATA WITH CAUTION...ESPECIALLY
DEWPOINT OBSERVATIONS.

SCZ001>056-GAZ040-063>065-077-250200-
...UPSTATE SOUTH CAROLINA...

CITY           SKY/WX    TMP DP  RH WIND       PRES   REMARKS
ANDERSON       MOCLDY    63  43  48 E3        29.97S
LIBERTY        MOCLDY    60  47  64 CALM      29.97F
SPARTANBURG    CLOUDY    64  37  36 CALM      29.98R
CLEMSON        MOCLDY    66  37  34 CALM      29.98S
GREENVILLE     CLOUDY    66  36  32 SE3       29.98S
GREENWOOD      MOCLDY    60  43  53 CALM      30.00R
GREER          CLOUDY    63  40  42 SW6       29.97S
ROCK HILL      MOCLDY    60  39  45 S5        29.99S
CHESTER        CLOUDY    63  37  39 S5        29.99S
LAURENS        CLOUDY    61  52  72 CALM      29.98S


...CENTRAL SOUTH CAROLINA...

CITY           SKY/WX    TMP DP  RH WIND       PRES   REMARKS
COLUMBIA APT   PTCLDY    63  44  50 CALM      29.98S
COLUMBIA OWENS PTCLDY    62  44  51 CALM      29.99F
DARLINGTON     PTCLDY    61  39  44 CALM      30.01S
FLORENCE       PTCLDY    59  42  53 S3        30.00R
MCENTIRE ANGB  MOCLDY    59  45  59 E5        29.99S
ORANGEBURG     PTCLDY    61  44  53 CALM      29.99F
SUMTER SHAW    MOCLDY    62  43  49 S2        29.97S
NEWBERRY       MOCLDY    59  46  63 S5        30.01S
AIKEN          FAIR      61  43  51 CALM      30.02S
BARNWELL       FAIR      63  46  55 CALM      30.00S
MANNING        FAIR      54  43  66 CALM      30.00F
CAMDEN         FAIR      61  45  55 CALM      30.00S
LANCASTER      MOCLDY    61  39  44 CALM      30.00R
WINNSBORO      MOCLDY    61  43  51 SE5       29.99R


...EASTERN AND COASTAL SOUTH CAROLINA...

CITY           SKY/WX    TMP DP  RH WIND       PRES   REMARKS
MYRTLE BEACH   CLEAR     61  41  48 SW8       30.04R
N MYRTLE BCH   CLEAR     60  45  57 SW6       30.02R
CONWAY         FAIR      57  46  67 CALM      30.02R
MARION         FAIR      57  43  58 S3        30.01R
HARTSVILLE     FAIR      54  39  58 CALM      30.00F
FLORENCE       PTCLDY    59  42  53 S3        30.00R
DARLINGTON     PTCLDY    61  39  44 CALM      30.01S
CHARLESTON APT PTCLDY    57  45  64 S6        30.02F
MOUNT PLEASANT FAIR      55  46  71 MISG      30.03S
WALTERBORO     PTCLDY    59  46  63 SE5       30.03S
BEAUFORT       PTCLDY    63  50  62 S3        30.02S


...EASTERN GEORGIA...

CITY           SKY/WX    TMP DP  RH WIND       PRES   REMARKS
AUGUSTA BUSH F CLOUDY    60  50  69 CALM      29.98S
AUGUSTA DANIEL CLOUDY    70  38  31 S5        29.98F
THOMSON        CLOUDY    66  55  66 CALM      30.01F
WASHINGTON     FAIR      64  57  77 CALM      29.96F
CLAXTON        FAIR      64  50  59 E3        30.00S
SYLVANIA       CLOUDY    65  49  55 S3        30.01S
STATESBORO       N/A     65  48  52 S7        30.00S
SAVANNAH       CLOUDY    63  45  51 S6        30.02F


...SOUTHERN NORTH CAROLINA...

CITY           SKY/WX    TMP DP  RH WIND       PRES   REMARKS
CHARLOTTE      MOCLDY    61  35  37 S5        29.98S
MONROE         MOCLDY    56  43  61 S3        29.98R
WADESBORO      MOCLDY    56  45  67 CALM      29.99S
ROCKINGHAM     PTCLDY    60  40  48 CALM      29.99S
RUTHERFORDTON  CLOUDY    62  36  38 S5        29.98S
ASHEVILLE      CLOUDY    62  34  35 CALM      29.99F

$$


USA.gov is the U.S. government's official web portal to all federal, state and local government web resources and services.